{"data":{"norad_id":63665,"intl_designator":"2025-085B","name":"STARLINK-11672 [DTC]","alt_names":[],"object_type":"PAYLOAD","status":"ACTIVE","operator":null,"country":"US","launch_date":"2025-04-28","launch_site_code":"AFETR","launch_vehicle":null,"mission":null,"orbit_class":"UNKNOWN","rcs_meters":null,"size_class":null,"mass_kg":null,"dimensions":null,"purposes":["comms"],"wikipedia_slug":null,"has_3d_model":false,"image_url":null,"decayed_at":null,"tle_current":{"epoch":"2026-09-20T19:22:43.565952Z","epoch_age_seconds":126078,"freshness":"FRESH","line1":"1 63665U 25085B   26263.80744868  .00226042  00000+0  17086-2 0  9999","line2":"2 63665  42.9998 181.8788 0003025 233.2356 126.8234 15.70963718 81545","mean_motion":15.70963718,"eccentricity":0.0003025,"inclination_deg":42.9998,"raan_deg":181.8788,"arg_perigee_deg":233.2356,"mean_anomaly_deg":126.8234,"bstar":0.0017086,"rev_number":8154,"period_min":91.663479143444,"perigee_km":354.10435633816,"apogee_km":358.17859481588,"semimajor_km":6734.278475577,"source":"CELESTRAK","updated_at":"2026-09-21T09:00:35.057098Z"}}}